Time,TemperatureF,DewpointF,PressureIn,WindDirection,WindDirectionDegrees,WindSpeedMPH,WindSpeedGustMPH,Humidity,HourlyPrecipIn,Conditions,Clouds,dailyrainin,SolarRadiationWatts/m^2,SoftwareType,DateUTC
2013-06-18 00:00:00,66.6,65.4,29.99,SE,141,0.0,0.0,96,0.00,,---,0.63,0.00,VWS V14.01,2013-06-18 04:00:00,
2013-06-18 00:01:00,66.6,65.4,29.99,SE,141,0.0,0.0,96,0.00,,---,0.63,0.00,VWS V14.01,2013-06-18 04:01:00,
2013-06-18 00:02:00,66.6,65.4,29.99,SE,141,0.0,0.0,96,0.00,,---,0.63,0.00,VWS V14.01,2013-06-18 04:02:00,
2013-06-18 00:07:00,66.7,65.5,29.99,SE,141,0.0,0.0,96,0.00,,---,0.00,0.00,VWS V14.01,2013-06-18 04:07:00,
2013-06-18 00:12:00,66.8,65.6,29.99,SE,141,0.0,0.0,96,0.00,,---,0.00,0.00,VWS V14.01,2013-06-18 04:12:00,
2013-06-18 00:17:00,67.0,65.8,29.99,SE,141,0.0,0.0,96,0.00,,---,0.00,0.00,VWS V14.01,2013-06-18 04:17:00,
2013-06-18 00:22:00,67.0,65.8,29.98,SE,141,0.0,0.0,96,0.00,,---,0.00,0.00,VWS V14.01,2013-06-18 04:22:00,
2013-06-18 00:27:00,67.0,65.8,29.98,SE,141,0.0,0.0,96,0.00,,---,0.00,0.00,VWS V14.01,2013-06-18 04:27:00,
2013-06-18 00:30:00,67.0,65.8,29.98,SE,141,0.0,0.0,96,0.00,,---,0.00,0.00,VWS V14.01,2013-06-18 04:30:00,
2013-06-18 00:32:00,67.0,65.8,29.98,SE,141,0.0,0.0,96,0.00,,---,0.00,0.00,VWS V14.01,2013-06-18 04:32:00,
2013-06-18 00:37:00,67.0,65.8,29.98,SE,141,0.0,0.0,96,0.00,,---,0.00,0.00,VWS V14.01,2013-06-18 04:37:00,
2013-06-18 00:42:00,67.0,65.8,29.97,SE,141,0.0,0.0,96,0.00,,---,0.00,0.00,VWS V14.01,2013-06-18 04:42:00,
2013-06-18 00:47:00,67.0,65.8,29.97,SE,141,0.0,0.0,96,0.00,,---,0.00,0.00,VWS V14.01,2013-06-18 04:47:00,
2013-06-18 00:52:00,67.0,66.1,29.97,SE,137,0.0,0.0,97,0.00,,---,0.00,0.00,VWS V14.01,2013-06-18 04:52:00,
2013-06-18 00:57:00,67.1,66.2,29.97,SE,137,0.0,0.0,97,0.00,,---,0.00,0.00,VWS V14.01,2013-06-18 04:57:00,
2013-06-18 01:00:00,67.1,66.2,29.96,SE,137,0.0,0.0,97,0.00,,---,0.00,0.00,VWS V14.01,2013-06-18 05:00:00,
2013-06-18 01:02:00,67.2,66.3,29.96,SE,137,0.0,0.0,97,0.00,,---,0.00,0.00,VWS V14.01,2013-06-18 05:02:00,
2013-06-18 01:07:00,67.2,66.3,29.97,SE,137,0.0,0.0,97,0.00,,---,0.00,0.00,VWS V14.01,2013-06-18 05:07:00,
2013-06-18 01:12:00,67.2,66.3,29.97,SE,137,0.0,0.0,97,0.00,,---,0.00,0.00,VWS V14.01,2013-06-18 05:12:00,
2013-06-18 01:17:00,67.2,66.3,29.96,SE,137,0.0,0.0,97,0.00,,---,0.00,0.00,VWS V14.01,2013-06-18 05:17:00,
2013-06-18 01:22:00,67.2,66.3,29.96,SE,137,0.0,0.0,97,0.00,,---,0.00,0.00,VWS V14.01,2013-06-18 05:22:00,
2013-06-18 01:27:00,67.2,66.3,29.96,SE,137,0.0,0.0,97,0.00,,---,0.00,0.00,VWS V14.01,2013-06-18 05:27:00,
2013-06-18 01:30:00,67.2,66.3,29.96,SE,137,0.0,0.0,97,0.00,,---,0.00,0.00,VWS V14.01,2013-06-18 05:30:00,
2013-06-18 01:32:00,67.2,66.3,29.96,SE,137,0.0,0.0,97,0.00,,---,0.00,0.00,VWS V14.01,2013-06-18 05:32:00,
2013-06-18 01:37:00,67.1,66.2,29.95,SE,137,0.0,0.0,97,0.00,,---,0.00,0.00,VWS V14.01,2013-06-18 05:37:00,
2013-06-18 01:42:00,67.2,66.3,29.95,SE,137,0.0,0.0,97,0.00,,---,0.00,0.00,VWS V14.01,2013-06-18 05:42:00,
2013-06-18 01:48:00,67.1,66.2,29.95,SE,137,0.0,0.0,97,0.00,,---,0.00,0.00,VWS V14.01,2013-06-18 05:48:00,
2013-06-18 01:53:00,67.1,66.2,29.95,SE,137,0.0,0.0,97,0.00,,---,0.00,0.00,VWS V14.01,2013-06-18 05:53:00,
2013-06-18 01:58:00,67.1,66.2,29.95,SE,137,0.0,0.0,97,0.00,,---,0.00,0.00,VWS V14.01,2013-06-18 05:58:00,
2013-06-18 02:00:00,67.1,66.2,29.95,SE,137,0.0,0.0,97,0.00,,---,0.00,0.00,VWS V14.01,2013-06-18 06:00:00,
2013-06-18 02:03:00,67.1,66.2,29.95,SE,137,0.0,0.0,97,0.00,,---,0.00,0.00,VWS V14.01,2013-06-18 06:03:00,
2013-06-18 02:08:00,67.1,66.2,29.95,SE,137,0.0,0.0,97,0.00,,---,0.00,0.00,VWS V14.01,2013-06-18 06:08:00,
2013-06-18 02:13:00,67.0,66.1,29.94,SE,137,0.0,0.0,97,0.00,,---,0.00,0.00,VWS V14.01,2013-06-18 06:13:00,
2013-06-18 02:18:00,67.0,65.8,29.94,SE,137,0.0,0.0,96,0.00,,---,0.00,0.00,VWS V14.01,2013-06-18 06:18:00,
2013-06-18 02:23:00,66.9,65.7,29.93,SE,137,0.0,0.0,96,0.00,,---,0.00,0.00,VWS V14.01,2013-06-18 06:23:00,
2013-06-18 02:28:00,66.8,65.6,29.93,SE,137,0.0,0.0,96,0.00,,---,0.00,0.00,VWS V14.01,2013-06-18 06:28:00,
2013-06-18 02:30:00,66.7,65.5,29.93,SE,142,0.0,0.0,96,0.00,,---,0.00,0.00,VWS V14.01,2013-06-18 06:30:00,
2013-06-18 02:33:00,66.7,65.5,29.93,SE,142,0.0,0.0,96,0.00,,---,0.00,0.00,VWS V14.01,2013-06-18 06:33:00,
2013-06-18 02:38:00,66.6,65.7,29.92,ESE,112,0.0,1.0,97,0.00,,---,0.00,0.00,VWS V14.01,2013-06-18 06:38:00,
2013-06-18 02:43:00,66.6,65.7,29.92,ESE,112,0.0,1.0,97,0.00,,---,0.00,0.00,VWS V14.01,2013-06-18 06:43:00,
2013-06-18 02:48:00,66.5,65.6,29.92,ESE,112,0.0,1.0,97,0.00,,---,0.00,0.00,VWS V14.01,2013-06-18 06:48:00,
2013-06-18 02:53:00,66.4,65.5,29.92,ESE,112,0.0,1.0,97,0.00,,---,0.00,0.00,VWS V14.01,2013-06-18 06:53:00,
2013-06-18 02:58:00,66.4,65.5,29.91,ESE,112,0.0,1.0,97,0.00,,---,0.00,0.00,VWS V14.01,2013-06-18 06:58:00,
2013-06-18 03:00:00,66.3,65.4,29.91,ESE,112,0.0,1.0,97,0.00,,---,0.00,0.00,VWS V14.01,2013-06-18 07:00:00,
2013-06-18 03:03:00,66.3,65.4,29.91,ESE,112,0.0,0.0,97,0.00,,---,0.00,0.00,VWS V14.01,2013-06-18 07:03:00,
2013-06-18 03:08:00,66.3,65.1,29.91,ESE,112,0.0,0.0,96,0.00,,---,0.00,0.00,VWS V14.01,2013-06-18 07:08:00,
2013-06-18 03:13:00,66.2,65.0,29.91,ESE,112,0.0,0.0,96,0.00,,---,0.00,0.00,VWS V14.01,2013-06-18 07:13:00,
2013-06-18 03:18:00,66.2,65.0,29.90,ESE,112,0.0,0.0,96,0.00,,---,0.00,0.00,VWS V14.01,2013-06-18 07:18:00,
2013-06-18 03:23:00,66.2,65.0,29.90,ESE,112,0.0,0.0,96,0.00,,---,0.00,0.00,VWS V14.01,2013-06-18 07:23:00,
2013-06-18 03:28:00,66.1,64.9,29.90,ESE,112,0.0,0.0,96,0.00,,---,0.00,0.00,VWS V14.01,2013-06-18 07:28:00,
2013-06-18 03:30:00,66.1,64.9,29.91,ESE,112,0.0,0.0,96,0.00,,---,0.00,0.00,VWS V14.01,2013-06-18 07:30:00,
2013-06-18 03:33:00,66.1,64.9,29.90,ESE,112,0.0,0.0,96,0.00,,---,0.00,0.00,VWS V14.01,2013-06-18 07:33:00,
2013-06-18 03:38:00,66.1,65.2,29.90,ESE,112,0.0,0.0,97,0.00,,---,0.00,0.00,VWS V14.01,2013-06-18 07:38:00,
2013-06-18 03:43:00,66.1,64.9,29.90,ESE,112,0.0,0.0,96,0.00,,---,0.00,0.00,VWS V14.01,2013-06-18 07:43:00,
2013-06-18 03:48:00,66.1,65.2,29.90,WSW,246,0.0,2.0,97,0.00,,---,0.00,0.00,VWS V14.01,2013-06-18 07:48:00,
2013-06-18 03:53:00,66.0,65.1,29.90,SE,143,0.0,3.0,97,0.00,,---,0.00,0.00,VWS V14.01,2013-06-18 07:53:00,
2013-06-18 03:58:00,66.0,65.1,29.90,East,82,0.0,3.0,97,0.00,,---,0.00,0.00,VWS V14.01,2013-06-18 07:58:00,
2013-06-18 04:00:00,66.0,65.1,29.89,South,187,0.0,3.0,97,0.00,,---,0.00,0.00,VWS V14.01,2013-06-18 08:00:00,
2013-06-18 04:03:00,66.0,65.1,29.89,ESE,119,0.0,0.0,97,0.00,,---,0.00,0.00,VWS V14.01,2013-06-18 08:03:00,
2013-06-18 04:08:00,66.0,65.1,29.89,ENE,58,0.0,2.0,97,0.00,,---,0.00,0.00,VWS V14.01,2013-06-18 08:08:00,
2013-06-18 04:13:00,66.0,65.1,29.89,NE,53,2.0,3.0,97,0.00,,---,0.00,0.00,VWS V14.01,2013-06-18 08:13:00,
2013-06-18 04:18:00,66.0,65.1,29.89,WSW,242,0.0,3.0,97,0.00,,---,0.00,0.00,VWS V14.01,2013-06-18 08:18:00,
2013-06-18 04:23:00,66.0,65.1,29.89,NW,304,0.0,3.0,97,0.00,,---,0.00,0.00,VWS V14.01,2013-06-18 08:23:00,
2013-06-18 04:28:00,66.0,65.1,29.90,SE,130,0.0,5.0,97,0.00,,---,0.00,0.00,VWS V14.01,2013-06-18 08:28:00,
2013-06-18 04:30:00,66.1,65.2,29.90,ENE,61,0.0,5.0,97,0.00,,---,0.00,0.00,VWS V14.01,2013-06-18 08:30:00,
2013-06-18 04:33:00,66.1,65.2,29.90,ENE,61,0.0,0.0,97,0.00,,---,0.00,0.00,VWS V14.01,2013-06-18 08:33:00,
2013-06-18 04:38:00,66.1,65.2,29.90,ENE,61,0.0,0.0,97,0.00,,---,0.00,0.00,VWS V14.01,2013-06-18 08:38:00,
2013-06-18 04:43:00,66.1,65.2,29.90,ENE,61,0.0,0.0,97,0.00,,---,0.00,0.00,VWS V14.01,2013-06-18 08:43:00,
2013-06-18 04:48:00,66.1,65.2,29.90,ENE,61,0.0,0.0,97,0.00,,---,0.00,0.00,VWS V14.01,2013-06-18 08:48:00,
2013-06-18 04:53:00,66.0,65.1,29.91,ENE,61,0.0,0.0,97,0.00,,---,0.00,0.00,VWS V14.01,2013-06-18 08:53:00,
2013-06-18 04:58:00,66.0,65.1,29.91,ENE,61,0.0,0.0,97,0.00,,---,0.00,0.00,VWS V14.01,2013-06-18 08:58:00,
2013-06-18 05:00:00,66.0,65.1,29.90,ENE,61,0.0,0.0,97,0.00,,---,0.00,0.00,VWS V14.01,2013-06-18 09:00:00,
2013-06-18 05:03:00,66.1,65.2,29.90,ENE,61,0.0,0.0,97,0.00,,---,0.00,0.00,VWS V14.01,2013-06-18 09:03:00,
2013-06-18 05:08:00,66.0,65.1,29.91,ENE,61,0.0,0.0,97,0.00,,---,0.00,0.00,VWS V14.01,2013-06-18 09:08:00,
2013-06-18 05:13:00,66.0,65.1,29.91,ENE,61,0.0,0.0,97,0.00,,---,0.00,0.00,VWS V14.01,2013-06-18 09:13:00,
2013-06-18 05:18:00,66.0,65.1,29.91,SW,219,0.0,0.0,97,0.00,,---,0.00,0.00,VWS V14.01,2013-06-18 09:18:00,
2013-06-18 05:23:00,66.1,65.2,29.91,SW,219,0.0,0.0,97,0.00,,---,0.00,0.00,VWS V14.01,2013-06-18 09:23:00,
2013-06-18 05:28:00,66.1,65.2,29.91,SW,219,0.0,1.0,97,0.00,,---,0.00,0.00,VWS V14.01,2013-06-18 09:28:00,
2013-06-18 05:30:00,66.0,65.1,29.91,SW,218,0.0,1.0,97,0.00,,---,0.00,0.00,VWS V14.01,2013-06-18 09:30:00,
2013-06-18 05:34:00,66.0,65.1,29.91,SW,218,0.0,0.0,97,0.00,,---,0.00,0.00,VWS V14.01,2013-06-18 09:34:00,
2013-06-18 05:39:00,66.0,65.1,29.91,SW,218,0.0,0.0,97,0.00,,---,0.00,0.00,VWS V14.01,2013-06-18 09:39:00,
2013-06-18 05:44:00,66.0,65.1,29.91,SW,218,0.0,1.0,97,0.00,,---,0.00,0.00,VWS V14.01,2013-06-18 09:44:00,
2013-06-18 05:49:00,66.0,65.1,29.91,SW,218,0.0,1.0,97,0.00,,---,0.00,0.00,VWS V14.01,2013-06-18 09:49:00,
2013-06-18 05:54:00,66.0,65.1,29.90,SW,218,0.0,1.0,97,0.00,,---,0.00,0.00,VWS V14.01,2013-06-18 09:54:00,
2013-06-18 05:59:00,65.9,65.0,29.90,SW,218,0.0,1.0,97,0.00,,---,0.00,0.00,VWS V14.01,2013-06-18 09:59:00,
2013-06-18 06:00:00,65.9,65.0,29.91,ENE,71,0.0,2.0,97,0.00,,---,0.00,0.00,VWS V14.01,2013-06-18 10:00:00,
2013-06-18 06:04:00,65.9,65.0,29.91,ENE,71,0.0,0.0,97,0.00,,---,0.00,0.00,VWS V14.01,2013-06-18 10:04:00,
2013-06-18 06:09:00,65.9,65.0,29.91,East,96,0.0,1.0,97,0.00,,---,0.00,0.00,VWS V14.01,2013-06-18 10:09:00,
2013-06-18 06:14:00,65.9,65.0,29.91,SE,134,0.0,3.0,97,0.00,,---,0.00,0.00,VWS V14.01,2013-06-18 10:14:00,
2013-06-18 06:19:00,65.8,64.9,29.91,SE,134,0.0,3.0,97,0.00,,---,0.00,0.00,VWS V14.01,2013-06-18 10:19:00,
2013-06-18 06:24:00,65.8,64.9,29.91,SW,225,0.0,3.0,97,0.00,,---,0.00,0.00,VWS V14.01,2013-06-18 10:24:00,
2013-06-18 06:29:00,65.8,64.9,29.91,SE,133,0.0,3.0,97,0.00,,---,0.00,5.00,VWS V14.01,2013-06-18 10:29:00,
2013-06-18 06:30:00,65.8,64.9,29.91,SE,133,0.0,3.0,97,0.01,,---,0.01,5.00,VWS V14.01,2013-06-18 10:30:00,
2013-06-18 06:34:00,65.8,64.9,29.91,SE,133,0.0,0.0,97,0.01,,---,0.01,5.00,VWS V14.01,2013-06-18 10:34:00,
2013-06-18 06:39:00,65.8,64.9,29.91,SE,133,0.0,0.0,97,0.01,,---,0.01,5.00,VWS V14.01,2013-06-18 10:39:00,
2013-06-18 06:44:00,65.8,64.9,29.90,SE,131,0.0,1.0,97,0.01,,---,0.01,9.00,VWS V14.01,2013-06-18 10:44:00,
2013-06-18 06:49:00,65.8,64.9,29.90,SE,131,0.0,1.0,97,0.01,,---,0.01,12.00,VWS V14.01,2013-06-18 10:49:00,
2013-06-18 06:54:00,65.8,64.9,29.90,SE,131,0.0,1.0,97,0.01,,---,0.01,14.00,VWS V14.01,2013-06-18 10:54:00,
2013-06-18 06:59:00,65.8,64.9,29.90,SE,131,0.0,1.0,97,0.01,,---,0.01,16.00,VWS V14.01,2013-06-18 10:59:00,
2013-06-18 07:00:00,65.8,64.9,29.90,SE,131,0.0,1.0,97,0.01,,---,0.01,16.00,VWS V14.01,2013-06-18 11:00:00,
2013-06-18 07:04:00,65.8,64.9,29.90,SE,131,0.0,0.0,97,0.01,,---,0.01,18.00,VWS V14.01,2013-06-18 11:04:00,
2013-06-18 07:09:00,65.8,64.9,29.90,SE,131,0.0,1.0,97,0.01,,---,0.01,18.00,VWS V14.01,2013-06-18 11:09:00,
2013-06-18 07:14:00,65.9,65.0,29.90,SE,131,0.0,1.0,97,0.01,,---,0.01,16.00,VWS V14.01,2013-06-18 11:14:00,
2013-06-18 07:19:00,65.9,65.0,29.90,SE,131,0.0,1.0,97,0.01,,---,0.01,16.00,VWS V14.01,2013-06-18 11:19:00,
2013-06-18 07:24:00,65.9,65.0,29.90,SE,131,0.0,1.0,97,0.01,,---,0.01,18.00,VWS V14.01,2013-06-18 11:24:00,
2013-06-18 07:29:00,65.9,65.0,29.90,SE,131,0.0,1.0,97,0.01,,---,0.01,16.00,VWS V14.01,2013-06-18 11:29:00,
2013-06-18 07:30:00,65.9,65.0,29.91,SE,131,0.0,1.0,97,0.01,,---,0.01,12.00,VWS V14.01,2013-06-18 11:30:00,
2013-06-18 07:34:00,65.9,65.0,29.91,SE,131,0.0,0.0,97,0.00,,---,0.01,12.00,VWS V14.01,2013-06-18 11:34:00,
2013-06-18 07:39:00,65.9,65.0,29.91,East,98,0.0,0.0,97,0.00,,---,0.01,12.00,VWS V14.01,2013-06-18 11:39:00,
2013-06-18 07:44:00,66.0,65.1,29.91,South,170,0.0,1.0,97,0.00,,---,0.01,14.00,VWS V14.01,2013-06-18 11:44:00,
2013-06-18 07:49:00,66.0,65.1,29.91,NE,48,0.0,2.0,97,0.01,,---,0.02,23.00,VWS V14.01,2013-06-18 11:49:00,
2013-06-18 07:54:00,66.0,65.1,29.91,SSW,209,0.0,4.0,97,0.02,,---,0.03,30.00,VWS V14.01,2013-06-18 11:54:00,
2013-06-18 07:59:00,66.0,65.1,29.91,ESE,121,0.0,4.0,97,0.04,,---,0.05,30.00,VWS V14.01,2013-06-18 11:59:00,
2013-06-18 08:00:00,66.0,65.1,29.92,ESE,121,0.0,4.0,97,0.05,,---,0.06,28.00,VWS V14.01,2013-06-18 12:00:00,
2013-06-18 08:04:00,66.0,65.1,29.91,ESE,121,0.0,0.0,97,0.06,,---,0.07,28.00,VWS V14.01,2013-06-18 12:04:00,
2013-06-18 08:09:00,66.0,65.1,29.91,ESE,118,0.0,2.0,97,0.08,,---,0.09,30.00,VWS V14.01,2013-06-18 12:09:00,
2013-06-18 08:14:00,66.0,65.1,29.91,East,94,0.0,2.0,97,0.09,,---,0.10,39.00,VWS V14.01,2013-06-18 12:14:00,
2013-06-18 08:19:00,65.9,65.0,29.91,ESE,114,0.0,2.0,97,0.11,,---,0.12,40.00,VWS V14.01,2013-06-18 12:19:00,
2013-06-18 08:24:00,65.9,65.0,29.92,SSW,198,2.0,2.0,97,0.13,,---,0.14,49.00,VWS V14.01,2013-06-18 12:24:00,
2013-06-18 08:29:00,65.9,65.0,29.91,SSW,198,0.0,2.0,97,0.15,,---,0.16,42.00,VWS V14.01,2013-06-18 12:29:00,
2013-06-18 08:30:00,65.9,65.0,29.91,WNW,292,0.0,2.0,97,0.17,,---,0.18,56.00,VWS V14.01,2013-06-18 12:30:00,
2013-06-18 08:33:00,65.9,65.0,29.91,WNW,292,0.0,0.0,97,0.17,,---,0.18,53.00,VWS V14.01,2013-06-18 12:33:00,
2013-06-18 08:39:00,65.9,65.0,29.91,WNW,292,0.0,0.0,97,0.17,,---,0.18,44.00,VWS V14.01,2013-06-18 12:39:00,
2013-06-18 08:44:00,65.9,65.0,29.91,WNW,292,0.0,0.0,97,0.18,,---,0.19,47.00,VWS V14.01,2013-06-18 12:44:00,
2013-06-18 08:49:00,65.9,65.0,29.92,WNW,292,0.0,1.0,97,0.19,,---,0.20,42.00,VWS V14.01,2013-06-18 12:49:00,
2013-06-18 08:54:00,65.9,65.0,29.92,WNW,292,0.0,1.0,97,0.19,,---,0.20,44.00,VWS V14.01,2013-06-18 12:54:00,
2013-06-18 08:59:00,65.9,65.0,29.91,WNW,292,0.0,1.0,97,0.20,,---,0.21,74.00,VWS V14.01,2013-06-18 12:59:00,
2013-06-18 09:00:00,66.0,65.1,29.91,East,99,0.0,1.0,97,0.21,,---,0.22,76.00,VWS V14.01,2013-06-18 13:00:00,
2013-06-18 09:04:00,66.0,65.1,29.91,East,99,0.0,0.0,97,0.16,,---,0.22,74.00,VWS V14.01,2013-06-18 13:04:00,
2013-06-18 09:09:00,66.0,65.1,29.91,SE,145,0.0,1.0,97,0.17,,---,0.23,58.00,VWS V14.01,2013-06-18 13:09:00,
2013-06-18 09:14:00,66.0,65.1,29.92,SE,145,0.0,1.0,97,0.18,,---,0.24,18.00,VWS V14.01,2013-06-18 13:14:00,
2013-06-18 09:19:00,66.0,65.1,29.92,SE,145,0.0,1.0,97,0.21,,---,0.27,11.00,VWS V14.01,2013-06-18 13:19:00,
2013-06-18 09:24:00,66.0,65.1,29.91,SE,145,0.0,1.0,97,0.25,,---,0.31,42.00,VWS V14.01,2013-06-18 13:24:00,
2013-06-18 09:29:00,65.8,64.9,29.92,SE,145,0.0,1.0,97,0.27,,---,0.33,81.00,VWS V14.01,2013-06-18 13:29:00,
2013-06-18 09:30:00,65.7,64.8,29.92,SE,145,0.0,1.0,97,0.28,,---,0.34,69.00,VWS V14.01,2013-06-18 13:30:00,
2013-06-18 09:34:00,65.7,64.8,29.92,SE,145,0.0,0.0,97,0.16,,---,0.34,65.00,VWS V14.01,2013-06-18 13:34:00,
2013-06-18 09:39:00,65.7,64.8,29.91,SE,145,0.0,0.0,97,0.16,,---,0.34,74.00,VWS V14.01,2013-06-18 13:39:00,
2013-06-18 09:44:00,65.7,64.8,29.91,SE,145,0.0,0.0,97,0.16,,---,0.34,105.00,VWS V14.01,2013-06-18 13:44:00,
2013-06-18 09:49:00,65.7,64.8,29.91,SE,145,0.0,0.0,97,0.16,,---,0.34,97.00,VWS V14.01,2013-06-18 13:49:00,
2013-06-18 09:54:00,65.7,64.8,29.92,SE,145,0.0,0.0,97,0.17,,---,0.35,125.00,VWS V14.01,2013-06-18 13:54:00,
2013-06-18 09:59:00,65.7,64.8,29.91,SE,145,0.0,0.0,97,0.17,,---,0.35,113.00,VWS V14.01,2013-06-18 13:59:00,
2013-06-18 10:00:00,65.8,64.9,29.91,SE,145,0.0,0.0,97,0.18,,---,0.36,114.00,VWS V14.01,2013-06-18 14:00:00,
2013-06-18 10:04:00,65.8,64.9,29.91,SE,145,0.0,0.0,97,0.14,,---,0.36,114.00,VWS V14.01,2013-06-18 14:04:00,
2013-06-18 10:09:00,65.8,64.9,29.91,SE,145,0.0,0.0,97,0.14,,---,0.36,123.00,VWS V14.01,2013-06-18 14:09:00,
2013-06-18 10:14:00,65.8,64.9,29.91,SE,145,0.0,0.0,97,0.14,,---,0.36,156.00,VWS V14.01,2013-06-18 14:14:00,
2013-06-18 10:19:00,65.8,64.9,29.91,SE,145,0.0,0.0,97,0.14,,---,0.36,169.00,VWS V14.01,2013-06-18 14:19:00,
2013-06-18 10:24:00,65.9,65.0,29.91,SE,145,0.0,0.0,97,0.14,,---,0.36,160.00,VWS V14.01,2013-06-18 14:24:00,
2013-06-18 10:29:00,65.9,65.0,29.91,SE,145,0.0,0.0,97,0.14,,---,0.36,186.00,VWS V14.01,2013-06-18 14:29:00,
2013-06-18 10:30:00,66.0,65.1,29.90,SE,145,0.0,0.0,97,0.14,,---,0.36,199.00,VWS V14.01,2013-06-18 14:30:00,
2013-06-18 10:34:00,66.0,65.1,29.90,SE,145,0.0,0.0,97,0.02,,---,0.36,199.00,VWS V14.01,2013-06-18 14:34:00,
2013-06-18 10:39:00,66.1,65.2,29.90,SE,145,0.0,0.0,97,0.02,,---,0.36,167.00,VWS V14.01,2013-06-18 14:39:00,
2013-06-18 10:44:00,66.1,65.2,29.90,SE,145,0.0,0.0,97,0.02,,---,0.36,163.00,VWS V14.01,2013-06-18 14:44:00,
2013-06-18 10:49:00,66.1,65.2,29.90,SE,145,0.0,0.0,97,0.02,,---,0.36,169.00,VWS V14.01,2013-06-18 14:49:00,
2013-06-18 10:54:00,66.2,65.3,29.90,SE,145,0.0,0.0,97,0.02,,---,0.36,165.00,VWS V14.01,2013-06-18 14:54:00,
2013-06-18 10:59:00,66.2,65.3,29.90,SE,145,0.0,0.0,97,0.02,,---,0.36,162.00,VWS V14.01,2013-06-18 14:59:00,
2013-06-18 11:00:00,66.3,65.4,29.90,SE,145,0.0,0.0,97,0.02,,---,0.36,163.00,VWS V14.01,2013-06-18 15:00:00,
2013-06-18 11:04:00,66.3,65.4,29.90,SE,145,0.0,0.0,97,0.00,,---,0.36,167.00,VWS V14.01,2013-06-18 15:04:00,
2013-06-18 11:09:00,66.5,65.6,29.90,SE,145,0.0,0.0,97,0.00,,---,0.36,179.00,VWS V14.01,2013-06-18 15:09:00,
2013-06-18 11:14:00,66.6,66.0,29.90,SE,145,0.0,0.0,98,0.00,,---,0.36,271.00,VWS V14.01,2013-06-18 15:14:00,
2013-06-18 11:19:00,66.8,66.2,29.90,SE,145,0.0,0.0,98,0.00,,---,0.36,243.00,VWS V14.01,2013-06-18 15:19:00,
2013-06-18 11:24:00,66.9,66.0,29.90,SE,145,0.0,1.0,97,0.00,,---,0.36,116.00,VWS V14.01,2013-06-18 15:24:00,
2013-06-18 11:29:00,66.9,66.0,29.91,SSE,150,0.0,1.0,97,0.00,,---,0.36,104.00,VWS V14.01,2013-06-18 15:29:00,
2013-06-18 11:30:00,67.0,66.1,29.91,SE,142,0.0,1.0,97,0.00,,---,0.36,148.00,VWS V14.01,2013-06-18 15:30:00,
2013-06-18 11:34:00,67.0,66.1,29.91,SE,142,0.0,0.0,97,0.00,,---,0.36,153.00,VWS V14.01,2013-06-18 15:34:00,
2013-06-18 11:39:00,67.0,66.1,29.91,SE,142,0.0,0.0,97,0.00,,---,0.36,134.00,VWS V14.01,2013-06-18 15:39:00,
2013-06-18 11:44:00,67.0,66.1,29.91,SE,142,0.0,0.0,97,0.01,,---,0.37,148.00,VWS V14.01,2013-06-18 15:44:00,
2013-06-18 11:49:00,67.0,66.1,29.90,SE,142,0.0,0.0,97,0.01,,---,0.37,160.00,VWS V14.01,2013-06-18 15:49:00,
2013-06-18 11:54:00,67.1,66.2,29.90,SE,142,0.0,0.0,97,0.02,,---,0.38,248.00,VWS V14.01,2013-06-18 15:54:00,
2013-06-18 11:59:00,67.2,66.3,29.90,SE,142,0.0,0.0,97,0.03,,---,0.39,294.00,VWS V14.01,2013-06-18 15:59:00,
2013-06-18 12:00:00,67.3,66.4,29.89,SE,142,0.0,0.0,97,0.03,,---,0.39,338.00,VWS V14.01,2013-06-18 16:00:00,
2013-06-18 12:04:00,67.4,66.5,29.89,SE,142,0.0,0.0,97,0.03,,---,0.39,352.00,VWS V14.01,2013-06-18 16:04:00,
2013-06-18 12:09:00,67.8,67.2,29.89,SE,142,1.0,1.0,98,0.03,,---,0.39,366.00,VWS V14.01,2013-06-18 16:09:00,
2013-06-18 12:14:00,67.7,66.8,29.89,SE,142,0.0,1.0,97,0.03,,---,0.39,524.00,VWS V14.01,2013-06-18 16:14:00,
2013-06-18 12:19:00,68.0,67.1,29.88,SE,142,0.0,1.0,97,0.03,,---,0.39,443.00,VWS V14.01,2013-06-18 16:19:00,
2013-06-18 12:24:00,68.5,67.6,29.88,South,172,0.0,3.0,97,0.03,,---,0.39,387.00,VWS V14.01,2013-06-18 16:24:00,
2013-06-18 12:29:00,68.6,67.1,29.88,South,172,0.0,3.0,95,0.03,,---,0.39,279.00,VWS V14.01,2013-06-18 16:29:00,
2013-06-18 12:30:00,68.8,67.3,29.88,South,172,0.0,3.0,95,0.03,,---,0.39,343.00,VWS V14.01,2013-06-18 16:30:00,
2013-06-18 12:34:00,68.9,67.4,29.88,South,172,0.0,0.0,95,0.03,,---,0.39,352.00,VWS V14.01,2013-06-18 16:34:00,
2013-06-18 12:39:00,69.4,67.9,29.88,South,172,0.0,0.0,95,0.03,,---,0.39,274.00,VWS V14.01,2013-06-18 16:39:00,
2013-06-18 12:44:00,69.4,67.6,29.88,South,176,0.0,1.0,94,0.03,,---,0.39,251.00,VWS V14.01,2013-06-18 16:44:00,
2013-06-18 12:49:00,69.4,67.3,29.88,SE,144,0.0,1.0,93,0.03,,---,0.39,325.00,VWS V14.01,2013-06-18 16:49:00,
2013-06-18 12:54:00,69.6,67.8,29.87,SE,144,0.0,1.0,94,0.03,,---,0.39,255.00,VWS V14.01,2013-06-18 16:54:00,
2013-06-18 12:59:00,69.6,67.5,29.87,SE,144,0.0,1.0,93,0.03,,---,0.39,167.00,VWS V14.01,2013-06-18 16:59:00,
2013-06-18 13:00:00,69.6,67.2,29.87,SE,144,0.0,1.0,92,0.03,,---,0.39,134.00,VWS V14.01,2013-06-18 17:00:00,
2013-06-18 13:04:00,69.7,67.3,29.86,SE,144,0.0,0.0,92,0.00,,---,0.39,125.00,VWS V14.01,2013-06-18 17:04:00,
2013-06-18 13:09:00,69.7,67.3,29.86,SE,144,0.0,0.0,92,0.01,,---,0.40,130.00,VWS V14.01,2013-06-18 17:09:00,
2013-06-18 13:14:00,69.7,67.3,29.87,SE,144,0.0,0.0,92,0.01,,---,0.40,51.00,VWS V14.01,2013-06-18 17:14:00,
2013-06-18 13:19:00,69.7,67.3,29.87,SE,144,0.0,0.0,92,0.05,,---,0.44,39.00,VWS V14.01,2013-06-18 17:19:00,
2013-06-18 13:24:00,69.4,67.0,29.86,SE,144,0.0,1.0,92,0.17,,---,0.56,53.00,VWS V14.01,2013-06-18 17:24:00,
2013-06-18 13:29:00,69.2,66.8,29.86,SE,144,0.0,1.0,92,0.27,,---,0.66,56.00,VWS V14.01,2013-06-18 17:29:00,
2013-06-18 13:30:00,68.9,66.5,29.86,SE,144,0.0,1.0,92,0.35,,---,0.74,30.00,VWS V14.01,2013-06-18 17:30:00,
2013-06-18 13:34:00,68.8,66.4,29.86,SE,144,0.0,0.0,92,0.37,,---,0.76,28.00,VWS V14.01,2013-06-18 17:34:00,
2013-06-18 13:39:00,68.2,65.8,29.85,SE,144,0.0,0.0,92,0.47,,---,0.86,19.00,VWS V14.01,2013-06-18 17:39:00,
2013-06-18 13:44:00,67.7,65.3,29.85,SE,144,0.0,0.0,92,0.55,,---,0.94,37.00,VWS V14.01,2013-06-18 17:44:00,
2013-06-18 13:49:00,67.4,65.3,29.85,SE,144,0.0,0.0,93,0.65,,---,1.04,21.00,VWS V14.01,2013-06-18 17:49:00,
2013-06-18 13:54:00,67.1,65.0,29.85,SE,144,0.0,0.0,93,0.77,,---,1.16,18.00,VWS V14.01,2013-06-18 17:54:00,
2013-06-18 13:59:00,66.9,65.1,29.85,SE,144,0.0,1.0,94,0.88,,---,1.27,12.00,VWS V14.01,2013-06-18 17:59:00,
2013-06-18 14:00:00,66.7,64.9,29.86,NW,322,0.0,1.0,94,0.97,,---,1.36,21.00,VWS V14.01,2013-06-18 18:00:00,
2013-06-18 14:04:00,66.7,64.9,29.87,NW,322,0.0,0.0,94,0.98,,---,1.37,21.00,VWS V14.01,2013-06-18 18:04:00,
2013-06-18 14:09:00,66.5,64.7,29.87,NW,322,0.0,2.0,94,1.08,,---,1.47,26.00,VWS V14.01,2013-06-18 18:09:00,
2013-06-18 14:14:00,66.4,64.6,29.87,NW,322,0.0,2.0,94,1.16,,---,1.55,46.00,VWS V14.01,2013-06-18 18:14:00,
2013-06-18 14:19:00,66.3,64.8,29.88,NW,322,0.0,2.0,95,1.23,,---,1.62,128.00,VWS V14.01,2013-06-18 18:19:00,
2013-06-18 14:24:00,66.1,64.6,29.88,NW,322,0.0,2.0,95,1.28,,---,1.67,151.00,VWS V14.01,2013-06-18 18:24:00,
2013-06-18 14:29:00,66.0,64.5,29.88,NW,322,0.0,2.0,95,1.29,,---,1.68,141.00,VWS V14.01,2013-06-18 18:29:00,
2013-06-18 14:30:00,66.1,64.6,29.88,NW,322,0.0,2.0,95,1.29,,---,1.68,123.00,VWS V14.01,2013-06-18 18:30:00,
2013-06-18 14:34:00,66.1,64.6,29.88,NW,322,0.0,0.0,95,0.94,,---,1.68,123.00,VWS V14.01,2013-06-18 18:34:00,
2013-06-18 14:39:00,66.0,64.5,29.87,NW,322,0.0,0.0,95,0.94,,---,1.68,137.00,VWS V14.01,2013-06-18 18:39:00,
2013-06-18 14:44:00,66.0,64.5,29.88,NW,322,0.0,0.0,95,0.94,,---,1.68,93.00,VWS V14.01,2013-06-18 18:44:00,
2013-06-18 14:49:00,66.0,64.5,29.87,NW,322,0.0,0.0,95,0.94,,---,1.68,105.00,VWS V14.01,2013-06-18 18:49:00,
2013-06-18 14:54:00,65.9,64.7,29.87,NW,322,0.0,0.0,96,0.94,,---,1.68,155.00,VWS V14.01,2013-06-18 18:54:00,
2013-06-18 14:59:00,65.9,64.7,29.87,NW,322,0.0,0.0,96,0.95,,---,1.69,211.00,VWS V14.01,2013-06-18 18:59:00,
2013-06-18 15:00:00,66.0,64.8,29.86,NW,322,0.0,0.0,96,0.95,,---,1.69,204.00,VWS V14.01,2013-06-18 19:00:00,
2013-06-18 15:04:00,66.0,64.8,29.86,NW,322,0.0,0.0,96,0.33,,---,1.69,209.00,VWS V14.01,2013-06-18 19:04:00,
2013-06-18 15:09:00,66.0,64.8,29.86,NW,322,0.0,0.0,96,0.33,,---,1.69,253.00,VWS V14.01,2013-06-18 19:09:00,
2013-06-18 15:14:00,66.1,64.9,29.86,NW,322,0.0,0.0,96,0.34,,---,1.70,241.00,VWS V14.01,2013-06-18 19:14:00,
2013-06-18 15:19:00,66.3,65.1,29.86,NW,322,0.0,0.0,96,0.34,,---,1.70,232.00,VWS V14.01,2013-06-18 19:19:00,
2013-06-18 15:24:00,66.4,65.5,29.86,NW,322,0.0,0.0,97,0.34,,---,1.70,178.00,VWS V14.01,2013-06-18 19:24:00,
2013-06-18 15:29:00,66.6,65.7,29.86,NW,322,0.0,1.0,97,0.34,,---,1.70,257.00,VWS V14.01,2013-06-18 19:29:00,
2013-06-18 15:30:00,66.6,65.7,29.86,NW,322,0.0,1.0,97,0.34,,---,1.70,255.00,VWS V14.01,2013-06-18 19:30:00,
2013-06-18 15:34:00,66.5,65.6,29.86,NW,322,0.0,0.0,97,0.02,,---,1.70,260.00,VWS V14.01,2013-06-18 19:34:00,
2013-06-18 15:39:00,66.5,65.6,29.86,NW,322,0.0,0.0,97,0.02,,---,1.70,304.00,VWS V14.01,2013-06-18 19:39:00,
2013-06-18 15:44:00,66.7,65.8,29.86,NW,322,0.0,1.0,97,0.02,,---,1.70,281.00,VWS V14.01,2013-06-18 19:44:00,
2013-06-18 15:49:00,66.8,65.9,29.86,NW,320,0.0,1.0,97,0.02,,---,1.70,267.00,VWS V14.01,2013-06-18 19:49:00,
2013-06-18 15:54:00,66.8,65.9,29.86,NW,322,0.0,3.0,97,0.02,,---,1.70,197.00,VWS V14.01,2013-06-18 19:54:00,
2013-06-18 15:59:00,66.8,65.9,29.86,NW,322,0.0,3.0,97,0.02,,---,1.70,200.00,VWS V14.01,2013-06-18 19:59:00,
2013-06-18 16:00:00,66.8,65.9,29.86,NW,322,0.0,3.0,97,0.02,,---,1.70,192.00,VWS V14.01,2013-06-18 20:00:00,
2013-06-18 16:04:00,66.9,66.0,29.85,NW,322,0.0,0.0,97,0.01,,---,1.70,225.00,VWS V14.01,2013-06-18 20:04:00,
2013-06-18 16:09:00,66.9,66.0,29.85,SW,232,0.0,2.0,97,0.01,,---,1.70,243.00,VWS V14.01,2013-06-18 20:09:00,
2013-06-18 16:14:00,67.0,66.1,29.86,West,279,0.0,4.0,97,0.01,,---,1.70,193.00,VWS V14.01,2013-06-18 20:14:00,
2013-06-18 16:19:00,66.9,66.0,29.86,West,279,0.0,4.0,97,0.01,,---,1.70,197.00,VWS V14.01,2013-06-18 20:19:00,
2013-06-18 16:24:00,66.9,66.0,29.86,West,275,0.0,4.0,97,0.01,,---,1.70,109.00,VWS V14.01,2013-06-18 20:24:00,
2013-06-18 16:29:00,66.8,65.9,29.86,West,279,3.0,4.0,97,0.01,,---,1.70,204.00,VWS V14.01,2013-06-18 20:29:00,
2013-06-18 16:30:00,66.9,66.0,29.86,West,279,3.0,4.0,97,0.01,,---,1.70,230.00,VWS V14.01,2013-06-18 20:30:00,
2013-06-18 16:34:00,66.9,66.0,29.86,West,279,0.0,3.0,97,0.00,,---,1.70,206.00,VWS V14.01,2013-06-18 20:34:00,
2013-06-18 16:39:00,66.9,66.0,29.86,West,279,0.0,3.0,97,0.00,,---,1.70,257.00,VWS V14.01,2013-06-18 20:39:00,
2013-06-18 16:44:00,67.1,66.2,29.86,West,279,0.0,3.0,97,0.00,,---,1.70,179.00,VWS V14.01,2013-06-18 20:44:00,
2013-06-18 16:49:00,67.0,66.1,29.86,WNW,302,1.0,3.0,97,0.00,,---,1.70,146.00,VWS V14.01,2013-06-18 20:49:00,
2013-06-18 16:54:00,66.6,65.4,29.87,WNW,298,0.0,3.0,96,0.00,,---,1.70,160.00,VWS V14.01,2013-06-18 20:54:00,
2013-06-18 16:59:00,66.2,65.0,29.87,WNW,291,0.0,3.0,96,0.00,,---,1.70,118.00,VWS V14.01,2013-06-18 20:59:00,
2013-06-18 17:00:00,66.0,64.8,29.87,NNW,336,0.0,4.0,96,0.00,,---,1.70,167.00,VWS V14.01,2013-06-18 21:00:00,
2013-06-18 17:04:00,65.9,64.7,29.87,NNW,336,0.0,1.0,96,0.00,,---,1.70,211.00,VWS V14.01,2013-06-18 21:04:00,
2013-06-18 17:09:00,65.7,64.5,29.87,NNW,336,0.0,2.0,96,0.00,,---,1.70,128.00,VWS V14.01,2013-06-18 21:09:00,
2013-06-18 17:14:00,65.5,64.3,29.88,NNW,336,0.0,2.0,96,0.00,,---,1.70,169.00,VWS V14.01,2013-06-18 21:14:00,
2013-06-18 17:19:00,65.4,64.2,29.88,NNW,336,0.0,2.0,96,0.00,,---,1.70,250.00,VWS V14.01,2013-06-18 21:19:00,
2013-06-18 17:24:00,65.3,64.1,29.88,NNW,336,0.0,2.0,96,0.00,,---,1.70,237.00,VWS V14.01,2013-06-18 21:24:00,
2013-06-18 17:29:00,65.4,64.2,29.87,West,272,1.0,2.0,96,0.00,,---,1.70,269.00,VWS V14.01,2013-06-18 21:29:00,
2013-06-18 17:30:00,65.5,64.3,29.87,West,272,0.0,2.0,96,0.00,,---,1.70,388.00,VWS V14.01,2013-06-18 21:30:00,
2013-06-18 17:34:00,65.5,64.3,29.88,WNW,284,0.0,3.0,96,0.00,,---,1.70,237.00,VWS V14.01,2013-06-18 21:34:00,
2013-06-18 17:39:00,65.4,64.2,29.87,West,280,0.0,3.0,96,0.00,,---,1.70,181.00,VWS V14.01,2013-06-18 21:39:00,
2013-06-18 17:44:00,65.3,64.1,29.87,WNW,284,0.0,3.0,96,0.00,,---,1.70,149.00,VWS V14.01,2013-06-18 21:44:00,
2013-06-18 17:49:00,65.2,64.0,29.87,WNW,284,0.0,3.0,96,0.00,,---,1.70,142.00,VWS V14.01,2013-06-18 21:49:00,
2013-06-18 17:54:00,65.1,63.9,29.87,WNW,285,0.0,3.0,96,0.00,,---,1.70,139.00,VWS V14.01,2013-06-18 21:54:00,
2013-06-18 17:59:00,65.0,63.5,29.87,WNW,285,0.0,3.0,95,0.00,,---,1.70,100.00,VWS V14.01,2013-06-18 21:59:00,
2013-06-18 18:00:00,64.9,63.4,29.87,WNW,285,0.0,3.0,95,0.00,,---,1.70,74.00,VWS V14.01,2013-06-18 22:00:00,
2013-06-18 18:04:00,64.9,63.4,29.87,WNW,285,0.0,0.0,95,0.00,,---,1.70,40.00,VWS V14.01,2013-06-18 22:04:00,
2013-06-18 18:09:00,64.9,63.4,29.87,WNW,285,0.0,0.0,95,0.00,,---,1.70,86.00,VWS V14.01,2013-06-18 22:09:00,
2013-06-18 18:14:00,64.9,63.4,29.87,West,281,0.0,1.0,95,0.00,,---,1.70,265.00,VWS V14.01,2013-06-18 22:14:00,
2013-06-18 18:19:00,65.0,63.5,29.88,WNW,285,0.0,1.0,95,0.00,,---,1.70,132.00,VWS V14.01,2013-06-18 22:19:00,
2013-06-18 18:24:00,65.1,63.6,29.88,WNW,285,0.0,1.0,95,0.00,,---,1.70,86.00,VWS V14.01,2013-06-18 22:24:00,
2013-06-18 18:29:00,65.1,63.6,29.88,WNW,285,0.0,1.0,95,0.00,,---,1.70,123.00,VWS V14.01,2013-06-18 22:29:00,
2013-06-18 18:30:00,65.2,63.4,29.88,WNW,285,0.0,1.0,94,0.00,,---,1.70,144.00,VWS V14.01,2013-06-18 22:30:00,
2013-06-18 18:34:00,65.2,63.4,29.87,WNW,285,0.0,0.0,94,0.00,,---,1.70,181.00,VWS V14.01,2013-06-18 22:34:00,
2013-06-18 18:39:00,65.2,63.4,29.87,WNW,285,0.0,0.0,94,0.00,,---,1.70,118.00,VWS V14.01,2013-06-18 22:39:00,
2013-06-18 18:44:00,65.3,63.5,29.87,ENE,67,0.0,0.0,94,0.00,,---,1.70,114.00,VWS V14.01,2013-06-18 22:44:00,
2013-06-18 18:49:00,65.4,63.6,29.87,ENE,67,0.0,0.0,94,0.00,,---,1.70,141.00,VWS V14.01,2013-06-18 22:49:00,
2013-06-18 18:54:00,65.5,63.7,29.87,ENE,69,0.0,0.0,94,0.00,,---,1.70,67.00,VWS V14.01,2013-06-18 22:54:00,
2013-06-18 18:59:00,65.4,63.6,29.87,ENE,69,0.0,0.0,94,0.00,,---,1.70,54.00,VWS V14.01,2013-06-18 22:59:00,
2013-06-18 19:00:00,65.5,63.7,29.87,ENE,66,0.0,0.0,94,0.00,,---,1.70,58.00,VWS V14.01,2013-06-18 23:00:00,
2013-06-18 19:04:00,65.5,63.7,29.87,ENE,69,0.0,0.0,94,0.00,,---,1.70,65.00,VWS V14.01,2013-06-18 23:04:00,
2013-06-18 19:09:00,65.5,63.4,29.88,ENE,69,0.0,0.0,93,0.00,,---,1.70,81.00,VWS V14.01,2013-06-18 23:09:00,
2013-06-18 19:14:00,65.6,63.5,29.87,ENE,69,0.0,0.0,93,0.00,,---,1.70,44.00,VWS V14.01,2013-06-18 23:14:00,
2013-06-18 19:19:00,65.6,63.5,29.88,ENE,69,0.0,0.0,93,0.00,,---,1.70,88.00,VWS V14.01,2013-06-18 23:19:00,
2013-06-18 19:24:00,65.7,63.6,29.88,ENE,69,0.0,0.0,93,0.00,,---,1.70,132.00,VWS V14.01,2013-06-18 23:24:00,
2013-06-18 19:29:00,65.8,63.7,29.87,ENE,69,0.0,0.0,93,0.00,,---,1.70,53.00,VWS V14.01,2013-06-18 23:29:00,
2013-06-18 19:30:00,65.8,63.7,29.87,ENE,69,0.0,1.0,93,0.00,,---,1.70,35.00,VWS V14.01,2013-06-18 23:30:00,
2013-06-18 19:34:00,65.8,63.7,29.88,ENE,69,0.0,0.0,93,0.00,,---,1.70,26.00,VWS V14.01,2013-06-18 23:34:00,
2013-06-18 19:39:00,65.7,63.3,29.88,ENE,69,0.0,2.0,92,0.00,,---,1.70,23.00,VWS V14.01,2013-06-18 23:39:00,
2013-06-18 19:44:00,65.7,63.3,29.88,ENE,69,0.0,2.0,92,0.00,,---,1.70,19.00,VWS V14.01,2013-06-18 23:44:00,
2013-06-18 19:49:00,65.7,63.3,29.89,ENE,69,0.0,2.0,92,0.00,,---,1.70,18.00,VWS V14.01,2013-06-18 23:49:00,
2013-06-18 19:54:00,65.7,63.3,29.89,ENE,69,0.0,2.0,92,0.00,,---,1.70,18.00,VWS V14.01,2013-06-18 23:54:00,
2013-06-18 19:59:00,65.6,63.2,29.89,ENE,69,0.0,2.0,92,0.00,,---,1.70,14.00,VWS V14.01,2013-06-18 23:59:00,
2013-06-18 20:00:00,65.6,63.2,29.89,ENE,69,0.0,2.0,92,0.00,,---,1.70,16.00,VWS V14.01,2013-06-19 00:00:00,
2013-06-18 20:04:00,65.6,63.2,29.89,ENE,69,0.0,0.0,92,0.00,,---,1.70,18.00,VWS V14.01,2013-06-19 00:04:00,
2013-06-18 20:09:00,65.5,63.1,29.89,ENE,69,0.0,0.0,92,0.00,,---,1.70,19.00,VWS V14.01,2013-06-19 00:09:00,
2013-06-18 20:15:00,65.4,63.0,29.89,ENE,69,0.0,0.0,92,0.00,,---,1.70,25.00,VWS V14.01,2013-06-19 00:15:00,
2013-06-18 20:20:00,65.4,63.0,29.90,ENE,69,0.0,0.0,92,0.00,,---,1.70,21.00,VWS V14.01,2013-06-19 00:20:00,
2013-06-18 20:24:00,65.3,62.9,29.90,ENE,69,0.0,0.0,92,0.00,,---,1.70,12.00,VWS V14.01,2013-06-19 00:24:00,
2013-06-18 20:30:00,65.3,62.9,29.90,ENE,69,0.0,0.0,92,0.00,,---,1.70,11.00,VWS V14.01,2013-06-19 00:30:00,
2013-06-18 20:35:00,65.2,62.8,29.91,ENE,69,0.0,0.0,92,0.00,,---,1.70,9.00,VWS V14.01,2013-06-19 00:35:00,
2013-06-18 20:40:00,65.1,63.0,29.91,ENE,69,0.0,0.0,93,0.00,,---,1.70,5.00,VWS V14.01,2013-06-19 00:40:00,
2013-06-18 20:45:00,65.0,62.9,29.91,ENE,69,0.0,0.0,93,0.00,,---,1.70,0.00,VWS V14.01,2013-06-19 00:45:00,
2013-06-18 20:50:00,65.0,62.9,29.92,ENE,69,0.0,0.0,93,0.00,,---,1.70,0.00,VWS V14.01,2013-06-19 00:50:00,
2013-06-18 20:55:00,64.9,62.8,29.92,ENE,69,0.0,0.0,93,0.00,,---,1.70,0.00,VWS V14.01,2013-06-19 00:55:00,
2013-06-18 20:59:00,64.9,62.8,29.92,ENE,69,0.0,0.0,93,0.00,,---,1.70,0.00,VWS V14.01,2013-06-19 00:59:00,
2013-06-18 21:00:00,64.8,62.7,29.92,ENE,69,0.0,0.0,93,0.00,,---,1.70,0.00,VWS V14.01,2013-06-19 01:00:00,
2013-06-18 21:04:00,64.8,62.7,29.92,ENE,69,0.0,0.0,93,0.00,,---,1.70,0.00,VWS V14.01,2013-06-19 01:04:00,
2013-06-18 21:10:00,64.8,62.7,29.92,ENE,69,0.0,0.0,93,0.00,,---,1.70,0.00,VWS V14.01,2013-06-19 01:10:00,
2013-06-18 21:15:00,64.8,62.7,29.92,ENE,69,0.0,0.0,93,0.00,,---,1.70,0.00,VWS V14.01,2013-06-19 01:15:00,
2013-06-18 21:20:00,64.8,62.7,29.92,ENE,69,0.0,0.0,93,0.00,,---,1.70,0.00,VWS V14.01,2013-06-19 01:20:00,
2013-06-18 21:25:00,64.7,62.6,29.92,ENE,69,0.0,0.0,93,0.00,,---,1.70,0.00,VWS V14.01,2013-06-19 01:25:00,
2013-06-18 21:30:00,64.7,62.6,29.92,ENE,69,0.0,0.0,93,0.00,,---,1.70,0.00,VWS V14.01,2013-06-19 01:30:00,
2013-06-18 21:35:00,64.7,62.9,29.92,ENE,69,0.0,0.0,94,0.00,,---,1.70,0.00,VWS V14.01,2013-06-19 01:35:00,
2013-06-18 21:40:00,64.6,62.8,29.93,ENE,69,0.0,0.0,94,0.00,,---,1.70,0.00,VWS V14.01,2013-06-19 01:40:00,
2013-06-18 21:45:00,64.6,62.8,29.93,ENE,69,0.0,0.0,94,0.00,,---,1.70,0.00,VWS V14.01,2013-06-19 01:45:00,
2013-06-18 21:50:00,64.6,62.8,29.93,ENE,69,0.0,0.0,94,0.00,,---,1.70,0.00,VWS V14.01,2013-06-19 01:50:00,
2013-06-18 21:55:00,64.6,62.8,29.94,ENE,69,0.0,0.0,94,0.00,,---,1.70,0.00,VWS V14.01,2013-06-19 01:55:00,
2013-06-18 22:00:00,64.5,62.7,29.94,ENE,69,0.0,0.0,94,0.00,,---,1.70,0.00,VWS V14.01,2013-06-19 02:00:00,
2013-06-18 22:05:00,64.5,62.7,29.94,ENE,69,0.0,0.0,94,0.00,,---,1.70,0.00,VWS V14.01,2013-06-19 02:05:00,
2013-06-18 22:10:00,64.5,62.7,29.95,ENE,69,0.0,0.0,94,0.00,,---,1.70,0.00,VWS V14.01,2013-06-19 02:10:00,
2013-06-18 22:15:00,64.5,62.7,29.95,ENE,69,0.0,0.0,94,0.00,,---,1.70,0.00,VWS V14.01,2013-06-19 02:15:00,
2013-06-18 22:20:00,64.5,62.7,29.96,ENE,69,0.0,0.0,94,0.00,,---,1.70,0.00,VWS V14.01,2013-06-19 02:20:00,
2013-06-18 22:25:00,64.5,62.7,29.96,ENE,69,0.0,0.0,94,0.00,,---,1.70,0.00,VWS V14.01,2013-06-19 02:25:00,
2013-06-18 22:30:00,64.5,62.7,29.96,ENE,69,0.0,0.0,94,0.00,,---,1.70,0.00,VWS V14.01,2013-06-19 02:30:00,
2013-06-18 22:35:00,64.4,62.6,29.97,ENE,69,0.0,0.0,94,0.00,,---,1.70,0.00,VWS V14.01,2013-06-19 02:35:00,
2013-06-18 22:40:00,64.4,62.6,29.97,ENE,69,0.0,0.0,94,0.00,,---,1.70,0.00,VWS V14.01,2013-06-19 02:40:00,
2013-06-18 22:45:00,64.3,62.5,29.97,ENE,69,0.0,0.0,94,0.00,,---,1.70,0.00,VWS V14.01,2013-06-19 02:45:00,
2013-06-18 22:50:00,64.3,62.5,29.97,ENE,69,0.0,0.0,94,0.00,,---,1.70,0.00,VWS V14.01,2013-06-19 02:50:00,
2013-06-18 22:55:00,64.2,62.4,29.97,ENE,69,0.0,0.0,94,0.00,,---,1.70,0.00,VWS V14.01,2013-06-19 02:55:00,
2013-06-18 23:00:00,64.1,62.3,29.97,ENE,69,0.0,0.0,94,0.00,,---,1.70,0.00,VWS V14.01,2013-06-19 03:00:00,
2013-06-18 23:05:00,64.0,62.2,29.97,ENE,69,0.0,0.0,94,0.00,,---,1.70,0.00,VWS V14.01,2013-06-19 03:05:00,
2013-06-18 23:10:00,63.9,62.1,29.97,ENE,69,0.0,0.0,94,0.00,,---,1.70,0.00,VWS V14.01,2013-06-19 03:10:00,
2013-06-18 23:15:00,63.8,62.0,29.97,ENE,69,0.0,0.0,94,0.00,,---,1.70,0.00,VWS V14.01,2013-06-19 03:15:00,
2013-06-18 23:20:00,63.8,62.0,29.97,ENE,69,0.0,0.0,94,0.00,,---,1.70,0.00,VWS V14.01,2013-06-19 03:20:00,
2013-06-18 23:25:00,63.7,62.0,29.97,ENE,69,0.0,0.0,94,0.00,,---,1.70,0.00,VWS V14.01,2013-06-19 03:25:00,
2013-06-18 23:30:00,63.6,61.8,29.97,ENE,69,0.0,0.0,94,0.00,,---,1.70,0.00,VWS V14.01,2013-06-19 03:30:00,
2013-06-18 23:35:00,63.6,61.8,29.97,ENE,69,0.0,0.0,94,0.00,,---,1.70,0.00,VWS V14.01,2013-06-19 03:35:00,
2013-06-18 23:40:00,63.5,61.8,29.97,ENE,69,0.0,0.0,94,0.00,,---,1.70,0.00,VWS V14.01,2013-06-19 03:40:00,
2013-06-18 23:45:00,63.4,61.7,29.98,ENE,69,0.0,0.0,94,0.00,,---,1.70,0.00,VWS V14.01,2013-06-19 03:45:00,
2013-06-18 23:50:00,63.4,61.7,29.98,ENE,69,0.0,0.0,94,0.00,,---,1.70,0.00,VWS V14.01,2013-06-19 03:50:00,
2013-06-18 23:55:00,63.3,61.5,29.98,ENE,69,0.0,0.0,94,0.00,,---,1.70,0.00,VWS V14.01,2013-06-19 03:55:00,